GPS BIIR-08 1 27663U 03005A 26126.23852705 .00000006 00000+0 00000+0 0 9995 2 27663 54.8900 216.6354 0148109 52.9884 317.9318 2.00562879170478 GPS BIIR-11 1 28190U 04009A 26125.75632748 -.00000026 00000+0 00000+0 0 9998 2 28190 54.8662 277.4006 0114139 171.2262 5.6729 2.00556203162099 GPS BIIR-13 1 28474U 04045A 26124.18169919 -.00000078 00000+0 00000+0 0 9991 2 28474 55.1614 326.6685 0169988 315.2286 229.9149 2.00554044157545 GPS BIIR-14M 1 28874U 05038A 26126.22177922 -.00000022 00000+0 00000+0 0 9997 2 28874 54.9138 274.8701 0127759 295.9042 243.9424 2.00568699150999 METEOSAT-9 (MSG-2) 1 28912U 05049B 26125.84362170 .00000131 00000+0 00000+0 0 9990 2 28912 9.2674 54.5755 0000892 25.8122 132.8584 1.00279737 6577 GPS BIIR-16M 1 29601U 06052A 26124.54204918 .00000012 00000+0 00000+0 0 9990 2 29601 54.9417 215.7361 0086196 90.3820 270.6547 2.00555783142538 GPS BIIR-17M 1 32260U 07047A 26125.34551519 -.00000011 00000+0 00000+0 0 9991 2 32260 54.0647 81.8307 0165045 86.6247 275.2294 2.00557539135952 GPS BIIR-18M 1 32384U 07062A 26125.42398176 -.00000026 00000+0 00000+0 0 9998 2 32384 55.0676 275.8707 0034801 162.8911 20.7808 2.00557584134651 GOES 14 1 35491U 09033A 26126.24749856 -.00000086 00000+0 00000+0 0 9992 2 35491 1.5822 83.5225 0002006 331.4795 63.5507 1.00118281 6179 GOES 15 1 36411U 10008A 26126.13223287 .00000030 00000+0 00000+0 0 9990 2 36411 1.1650 83.5975 0004649 25.2156 226.0856 1.00273778 59212 GSAT0101 (GALILEO-PFM) 1 37846U 11060A 26123.85460758 -.00000083 00000+0 00000+0 0 9993 2 37846 57.0074 342.9640 0003924 33.1521 326.9140 1.70475928 90360 GSAT0102 (GALILEO-FM2) 1 37847U 11060B 26125.24558439 -.00000078 00000+0 00000+0 0 9997 2 37847 57.0080 342.9268 0004337 6.8323 172.4902 1.70476141 90391 LUCH 5A 1 37951U 11074B 26126.13794962 -.00000040 00000+0 00000+0 0 9999 2 37951 8.6483 74.4136 0002728 320.6715 45.5719 1.00274555 52630 METEOSAT-10 (MSG-3) 1 38552U 12035B 26126.11966616 .00000002 00000+0 00000+0 0 9997 2 38552 4.5730 61.1954 0002116 325.6048 240.3561 1.00270368 50438 SARSAT 13 (METOP-B) 1 38771U 12049A 26126.23621997 .00000100 00000+0 65750-4 0 9995 2 38771 98.6535 178.5656 0003573 104.9402 255.2171 14.21436268707307 GPS BIIF-3 1 38833U 12053A 26119.45673442 .00000077 00000+0 00000+0 0 9992 2 38833 53.5755 145.5957 0178090 65.1816 296.7302 2.00566727 98466 GSAT0103 (GALILEO-FM3) 1 38857U 12055A 26123.30839435 .00000025 00000+0 00000+0 0 9998 2 38857 55.7792 102.7757 0005855 296.6791 63.2255 1.70473546 84248 GPS BIIF-4 1 39166U 13023A 26124.30819451 -.00000030 00000+0 00000+0 0 9992 2 39166 54.5400 270.7602 0141896 50.7379 310.4804 2.00563857 95009 INSAT-3D 1 39216U 13038B 26126.21989633 -.00000330 00000+0 00000+0 0 9999 2 39216 1.8179 83.0444 0001248 293.3273 56.3985 1.00273019 46656 GPS BIIF-5 1 39533U 14008A 26124.80771742 .00000047 00000+0 00000+0 0 9996 2 39533 53.6464 151.0892 0083952 230.3565 128.9552 2.00557117 88815 LUCH 5V 1 39727U 14023A 26126.28110476 -.00000260 00000+0 00000+0 0 9991 2 39727 5.0314 70.1579 0002868 355.1878 354.7298 1.00269389 43938 GPS BIIF-6 1 39741U 14026A 26125.58194561 -.00000075 00000+0 00000+0 0 9993 2 39741 56.5180 333.1764 0038764 326.8427 32.9438 2.00564326 87684 GPS BIIF-7 1 40105U 14045A 26125.67277388 .00000008 00000+0 00000+0 0 9994 2 40105 55.3262 90.1578 0031874 118.9411 241.3498 2.00555717 85223 GSAT0201 (GALILEO 5) 1 40128U 14050A 26124.75907884 -.00000048 00000+0 00000+0 0 9999 2 40128 48.9238 275.2147 1667807 177.6970 183.1906 1.85520134 77518 GSAT0202 (GALILEO 6) 1 40129U 14050B 26125.55375754 -.00000042 00000+0 00000+0 0 9998 2 40129 48.9403 274.2670 1669018 178.4565 182.1452 1.85520749 79696 GPS BIIF-8 1 40294U 14068A 26124.05040511 -.00000086 00000+0 00000+0 0 9992 2 40294 56.9588 32.6555 0065625 69.1029 291.6193 2.00573639 84322 GLONASS-K 2 1 40315U 14075A 26126.06741133 .00000031 00000+0 00000+0 0 9994 2 40315 63.6141 191.8298 0022032 210.3809 149.5689 2.13101484 88952 GPS BIIF-9 1 40534U 15013A 26126.17986672 .00000011 00000+0 00000+0 0 9999 2 40534 53.1725 205.9151 0108911 39.9934 320.8697 2.00553988 80981 GSAT0203 (GALILEO 7) 1 40544U 15017A 26124.80575900 -.00000080 00000+0 00000+0 0 9997 2 40544 56.8016 342.7786 0001683 318.1144 41.9124 1.70476102 68465 GSAT0204 (GALILEO 8) 1 40545U 15017B 26124.47482400 -.00000081 00000+0 00000+0 0 9994 2 40545 56.8068 342.8061 0002107 283.6480 76.3687 1.70475814 31501 GPS BIIF-10 1 40730U 15033A 26125.84057371 -.00000022 00000+0 00000+0 0 9990 2 40730 54.0171 268.8316 0115007 29.9738 330.6547 2.00558539 79146 METEOSAT-11 (MSG-4) 1 40732U 15034A 26126.19283244 .00000070 00000+0 00000+0 0 9994 2 40732 3.0975 71.3291 0001555 347.4595 244.0514 1.00267112 6790 GSAT0205 (GALILEO 9) 1 40889U 15045A 26115.63255192 -.00000038 00000+0 00000+0 0 9992 2 40889 54.9613 223.1764 0005159 266.9978 92.9342 1.67410754 66085 GSAT0206 (GALILEO 10) 1 40890U 15045B 26124.46349873 .00000002 00000+0 00000+0 0 9995 2 40890 54.9581 222.8116 0001823 28.6862 331.3595 1.70474123 66294 GPS BIIF-11 1 41019U 15062A 26125.89816810 -.00000078 00000+0 00000+0 0 9990 2 41019 56.9325 32.4407 0111307 231.4482 127.5771 2.00567146 76985 ELEKTRO-L 2 1 41105U 15074A 26126.18806575 -.00000109 00000+0 00000+0 0 9994 2 41105 6.5902 71.0298 0001926 271.9126 294.2841 1.00271287 38085 GSAT0209 (GALILEO 12) 1 41174U 15079A 26124.63141283 .00000029 00000+0 00000+0 0 9991 2 41174 55.8015 102.4553 0005670 330.6895 29.2422 1.70474160 64039 GSAT0208 (GALILEO 11) 1 41175U 15079B 26123.09193130 .00000025 00000+0 00000+0 0 9995 2 41175 55.7990 102.4946 0005107 331.7246 28.2122 1.70474058 64429 GPS BIIF-12 1 41328U 16007A 26125.98646536 .00000014 00000+0 00000+0 0 9998 2 41328 55.4988 91.1317 0096131 247.1834 111.7721 2.00553825 74999 GSAT0211 (GALILEO 14) 1 41549U 16030A 26126.14899237 .00000006 00000+0 00000+0 0 9997 2 41549 55.1076 222.8509 0002507 349.6941 10.3415 1.70474228 61957 GSAT0210 (GALILEO 13) 1 41550U 16030B 26124.64651356 .00000003 00000+0 00000+0 0 9997 2 41550 55.1082 222.8901 0002356 218.3947 141.6248 1.70474254 61920 INSAT-3DR 1 41752U 16054A 26126.13439955 -.00000069 00000+0 00000+0 0 9995 2 41752 0.1371 87.2983 0010986 193.8295 65.2650 1.00272724 35390 GSAT0207 (GALILEO 15) 1 41859U 16069A 26123.16490661 .00000024 00000+0 00000+0 0 9990 2 41859 55.4711 102.3308 0005901 318.6134 41.3062 1.70474063 58630 GSAT0212 (GALILEO 16) 1 41860U 16069B 26125.36472333 .00000031 00000+0 00000+0 0 9990 2 41860 55.4699 102.2652 0004712 343.2381 16.7109 1.70474234 58925 GSAT0213 (GALILEO 17) 1 41861U 16069C 26125.14546651 .00000030 00000+0 00000+0 0 9991 2 41861 55.4725 102.2790 0005790 303.9672 55.9420 1.70474575 58785 GSAT0214 (GALILEO 18) 1 41862U 16069D 26125.29159859 .00000031 00000+0 00000+0 0 9999 2 41862 55.4711 102.2677 0004850 309.5121 50.4095 1.70474322 58915 GOES 16 1 41866U 16071A 26126.24158458 -.00000083 00000+0 00000+0 0 9994 2 41866 0.2354 85.6230 0001150 274.6770 206.0666 1.00272864 34682 GSAT-17 1 42815U 17040B 26126.10233296 -.00000250 00000+0 00000+0 0 9991 2 42815 0.0035 329.7730 0003569 352.3732 32.2151 1.00271464 32362 GSAT0215 (GALILEO 19) 1 43055U 17079A 26125.19514258 .00000004 00000+0 00000+0 0 9994 2 43055 55.0845 222.6894 0003540 268.8336 91.1647 1.70474894 52253 GSAT0216 (GALILEO 20) 1 43056U 17079B 26124.31315758 .00000002 00000+0 00000+0 0 9990 2 43056 55.0860 222.7137 0003422 276.0635 83.9327 1.70474721 52257 GSAT0217 (GALILEO 21) 1 43057U 17079C 26125.70710091 .00000005 00000+0 00000+0 0 9997 2 43057 55.0843 222.6734 0002739 295.9806 64.0315 1.70474866 52269 GSAT0218 (GALILEO 22) 1 43058U 17079D 26123.58082879 -.00000001 00000+0 00000+0 0 9995 2 43058 55.0853 222.7293 0004034 276.2514 83.7337 1.70474955 52250 GOES 17 1 43226U 18022A 26126.24461793 -.00000175 00000+0 00000+0 0 9995 2 43226 0.8305 86.2908 0000765 314.1348 182.2592 1.00272015 30000 GSAT0221 (GALILEO 25) 1 43564U 18060A 26125.83095605 -.00000076 00000+0 00000+0 0 9991 2 43564 57.1821 342.9247 0003723 316.8477 43.1623 1.70475991 48442 GSAT0222 (GALILEO 26) 1 43565U 18060B 26124.29079647 -.00000081 00000+0 00000+0 0 9995 2 43565 57.1865 342.9698 0002158 285.2586 74.7585 1.70475690 48467 GSAT0219 (GALILEO 23) 1 43566U 18060C 26123.92519379 -.00000082 00000+0 00000+0 0 9997 2 43566 57.1898 342.9811 0003207 347.5577 12.4760 1.70475957 48436 GSAT0220 (GALILEO 24) 1 43567U 18060D 26125.90591464 -.00000075 00000+0 00000+0 0 9995 2 43567 57.1836 342.9279 0002969 344.4672 15.5628 1.70476039 48454 BEIDOU-3 M13 1 43622U 18072A 26125.57934894 -.00000038 00000+0 00000+0 0 9990 2 43622 56.5897 64.0644 0008637 320.0030 39.9125 1.86231375 51860 BEIDOU-3 M14 1 43623U 18072B 26125.98174939 -.00000034 00000+0 00000+0 0 9998 2 43623 56.5917 64.0457 0006781 344.8164 15.1441 1.86231432 51867 GPS BIII-1 1 43873U 18109A 26126.27782193 .00000021 00000+0 00000+0 0 9991 2 43873 55.6571 93.8394 0038091 198.8492 264.6640 2.00559923 54231 METEOR-M2 2 1 44387U 19038A 26126.23728707 .00000203 00000+0 10787-3 0 9990 2 44387 98.9137 112.9084 0002076 111.5244 248.6155 14.24354383355329 GPS BIII-2 1 44506U 19056A 26126.00897455 -.00000074 00000+0 00000+0 0 9995 2 44506 55.6561 332.8192 0059939 197.3011 334.5563 2.00569589 49224 BEIDOU-3 M24 1 44542U 19061A 26123.67526829 .00000043 00000+0 00000+0 0 9990 2 44542 54.3944 184.2291 0008081 4.9676 355.1289 1.86229129 44962 BEIDOU-3 M23 1 44543U 19061B 26123.37815339 .00000045 00000+0 00000+0 0 9997 2 44543 54.3931 184.2075 0005130 346.2443 86.5306 1.86227528 44961 BEIDOU-3 M22 1 44793U 19078A 26125.12531897 -.00000056 00000+0 00000+0 0 9994 2 44793 53.9764 301.3417 0007280 47.0704 312.9722 1.86227453 43844 BEIDOU-3 M21 1 44794U 19078B 26125.80231316 -.00000051 00000+0 00000+0 0 9998 2 44794 53.9484 301.2800 0005062 44.7613 315.2624 1.86227997 43860 ELEKTRO-L 3 1 44903U 19095A 26126.13465955 -.00000088 00000+0 00000+0 0 9994 2 44903 0.1485 78.4203 0001345 324.9110 305.1000 1.00272236 23284 GPS BIII-3 1 45854U 20041A 26124.11433877 -.00000088 00000+0 00000+0 0 9997 2 45854 56.6426 30.6538 0062427 204.9389 339.0055 2.00559922 43150 COSMOS 2547 1 46805U 20075A 26125.24171473 .00000033 00000+0 00000+0 0 9996 2 46805 64.5969 193.9081 0008440 236.6486 123.3485 2.13100494 42990 GPS BIII-4 1 46826U 20078A 26124.44025308 .00000014 00000+0 00000+0 0 9997 2 46826 53.9867 212.5528 0071479 206.0342 188.1917 2.00565048 40634 GSAT0223 (GALILEO 27) 1 49809U 21116A 26124.29072407 -.00000081 00000+0 00000+0 0 9995 2 49809 57.1748 342.8611 0000411 234.3883 305.1894 1.70476167 27431 GSAT0224 (GALILEO 28) 1 49810U 21116B 26124.10462745 -.00000081 00000+0 00000+0 0 9995 2 49810 57.1751 342.8650 0001152 75.3730 102.5990 1.70476164 27452 GOES 18 1 51850U 22021A 26126.02129912 .00000105 00000+0 00000+0 0 9993 2 51850 0.0475 82.1115 0000629 16.3635 356.0898 1.00271329 6174 COSMOS 2557 (706K) 1 52984U 22075A 26124.46778403 -.00000043 00000+0 00000+0 0 9994 2 52984 64.3237 316.0251 0010121 280.7053 79.1925 2.13102174 29783 METEOSAT-12 (MTG-I1) 1 54743U 22170C 26126.19092576 .00000000 00000+0 00000+0 0 9999 2 54743 0.7340 23.8472 0001034 1.5531 267.0228 1.00271824 12553 METEOR-M2 3 1 57166U 23091A 26126.29235637 .00000000 00000+0 19050-4 0 9992 2 57166 98.6109 182.1210 0002837 300.6444 59.4455 14.24043217148559 COSMOS 2569 (703K) 1 57517U 23114A 26126.02018780 .00000002 00000+0 00000+0 0 9999 2 57517 65.2797 74.0417 0012155 295.7647 64.0910 2.13103867 21363 METEOR-M2 4 1 59051U 24039A 26126.25952377 .00000028 00000+0 32100-4 0 9994 2 59051 98.6987 86.0916 0006042 296.2380 63.8176 14.22425164113301 GSAT0225 (GALILEO 29) 1 59598U 24079A 26123.52773475 .00000024 00000+0 00000+0 0 9996 2 59598 55.0919 102.3267 0002635 280.7133 256.3971 1.70474611 12555 GSAT0227 (GALILEO 30) 1 59600U 24079C 26125.76883366 .00000033 00000+0 00000+0 0 9999 2 59600 55.0886 102.2629 0001338 18.9822 340.9885 1.70474446 12648 GSAT0232 (GALILEO 32) 1 61182U 24167A 26124.24923167 .00000002 00000+0 00000+0 0 9997 2 61182 55.1982 222.5188 0005377 220.9622 141.9031 1.70474560 10131 GSAT0226 (GALILEO 31) 1 61183U 24167B 26124.63858007 .00000003 00000+0 00000+0 0 9992 2 61183 55.1966 222.5155 0001909 201.9502 131.2164 1.70474640 10106 GSAT0233 (GALILEO 33) 1 67160U 25302A 26126.00669777 .00000034 00000+0 00000+0 0 9996 2 67160 54.3085 103.3317 0002013 243.1482 306.1537 1.70474618 2404 GSAT0234 (GALILEO 34) 1 67162U 25302C 26125.63395045 .00000032 00000+0 00000+0 0 9998 2 67162 54.3104 103.3413 0003812 293.3893 207.2543 1.70474658 2453